SilverSat

operational
NORAD ID: 66908 Int'l Des: NNA 1998-067 Owner: SILVER Country: US
LEOCIRCULAR

SilverSatについて

説明を読み込み中...

リアルタイム位置

3D地球を読み込み中...

次回通過

高度履歴

Altitude vs Time

uPlot chart will show altitude changes over time

軌道要素

1 66908U 98067XU 25347.69234256 .00071410 00000-0 11749-2 0 9994
2 66908 51.6298 137.6510 0004467 231.5910 128.4679 15.51689462 1765
Epoch: Dec 13, 2025 • Age: 15 hours

現在のステータス

高度 412.0 km
速度 7.67 km/s
衛星直下点 -10.86°S, 129.69°E
打ち上げ日 Sep 14, 2025
運用期間 0.2 years
タイプ other

技術仕様

分類 Payload
質量 0.88 kg
乾燥質量 0.88 kg
総質量 0.88 kg
長さ 0.10 m
直径 0.10 m
スパン 0.40 m
形状 Box+antenna
製造者 SILVER
バスタイプ Cubesat 1U
フェーズステータス In Orbit
所有者/国 SILVER/US

大規模コンステレーション

Loading constellations...